Time,TemperatureF,DewpointF,PressureIn,WindDirection,WindDirectionDegrees,WindSpeedMPH,WindSpeedGustMPH,Humidity,HourlyPrecipIn,Conditions,Clouds,dailyrainin,SoftwareType,DateUTC
2013-11-13 00:22:00,23.0,13.0,30.65,West,276,6.0,10.0,66,0.00,,,0.00,,2013-11-13 06:22:00,
2013-11-13 00:42:00,25.0,14.0,30.64,West,266,6.0,11.0,63,0.00,,,0.00,,2013-11-13 06:42:00,
2013-11-13 00:52:00,25.0,13.0,30.63,West,273,6.0,11.0,61,0.00,,,0.00,,2013-11-13 06:52:00,
2013-11-13 01:22:00,25.0,14.0,30.61,WNW,286,7.0,12.0,63,0.00,,,0.00,,2013-11-13 07:22:00,
2013-11-13 01:42:00,25.0,14.0,30.60,West,279,9.0,13.0,62,0.00,,,0.00,,2013-11-13 07:42:00,
2013-11-13 01:52:00,25.0,14.0,30.59,South,188,8.0,15.0,63,0.00,,,0.00,,2013-11-13 07:52:00,
2013-11-13 02:22:00,25.0,15.0,30.58,WNW,282,8.0,15.0,64,0.00,,,0.00,,2013-11-13 08:22:00,
2013-11-13 02:42:00,24.0,14.0,30.58,WNW,285,6.0,15.0,65,0.00,,,0.00,,2013-11-13 08:42:00,
2013-11-13 02:52:00,25.0,15.0,30.58,WNW,289,8.0,17.0,64,0.00,,,0.00,,2013-11-13 08:52:00,
2013-11-13 03:11:00,25.0,15.0,30.57,West,273,6.0,13.0,64,0.00,,,0.00,,2013-11-13 09:11:00,
2013-11-13 03:21:00,24.0,14.0,30.57,West,273,4.0,11.0,66,0.00,,,0.00,,2013-11-13 09:21:00,
2013-11-13 03:43:00,24.0,15.0,30.57,West,271,4.0,10.0,67,0.00,,,0.00,,2013-11-13 09:43:00,
2013-11-13 03:52:00,24.0,15.0,30.56,WNW,286,2.0,7.0,69,0.00,,,0.00,,2013-11-13 09:52:00,
2013-11-13 04:13:00,23.0,15.0,30.55,WSW,249,3.0,7.0,70,0.00,,,0.00,,2013-11-13 10:13:00,
2013-11-13 04:23:00,24.0,16.0,30.54,West,277,3.0,9.0,70,0.00,,,0.00,,2013-11-13 10:23:00,
2013-11-13 04:42:00,24.0,15.0,30.53,WNW,286,3.0,8.0,69,0.00,,,0.00,,2013-11-13 10:42:00,
2013-11-13 04:52:00,24.0,15.0,30.52,West,274,5.0,10.0,69,0.00,,,0.00,,2013-11-13 10:52:00,
2013-11-13 05:12:00,24.0,15.0,30.51,WNW,290,3.0,14.0,69,0.00,,,0.00,,2013-11-13 11:12:00,
2013-11-13 05:22:00,24.0,15.0,30.51,WNW,292,4.0,10.0,69,0.00,,,0.00,,2013-11-13 11:22:00,
2013-11-13 05:42:00,24.0,16.0,30.50,West,275,5.0,10.0,70,0.00,,,0.00,,2013-11-13 11:42:00,
2013-11-13 05:52:00,24.0,16.0,30.49,WNW,283,5.0,11.0,70,0.00,,,0.00,,2013-11-13 11:52:00,
2013-11-13 06:11:00,24.0,16.0,30.49,NNW,336,4.0,10.0,71,0.00,,,0.00,,2013-11-13 12:11:00,
2013-11-13 06:22:00,24.0,16.0,30.49,South,169,4.0,9.0,71,0.00,,,0.00,,2013-11-13 12:22:00,
2013-11-13 06:42:00,25.0,17.0,30.49,SSW,206,2.0,8.0,70,0.00,,,0.00,,2013-11-13 12:42:00,
2013-11-13 06:52:00,24.0,16.0,30.48,SSW,204,3.0,8.0,70,0.00,,,0.00,,2013-11-13 12:52:00,
2013-11-13 07:11:00,25.0,17.0,30.48,SSE,165,5.0,10.0,70,0.00,,,0.00,,2013-11-13 13:11:00,
2013-11-13 07:21:00,24.0,16.0,30.48,SSW,205,4.0,10.0,70,0.00,,,0.00,,2013-11-13 13:21:00,
2013-11-13 07:42:00,24.0,17.0,30.47,SSW,198,5.0,7.0,73,0.00,,,0.00,,2013-11-13 13:42:00,
2013-11-13 07:52:00,24.0,17.0,30.47,SW,217,5.0,8.0,73,0.00,,,0.00,,2013-11-13 13:52:00,
2013-11-13 08:11:00,24.0,17.0,30.47,SSW,208,5.0,8.0,73,0.00,,,0.00,,2013-11-13 14:11:00,
2013-11-13 08:22:00,25.0,17.0,30.46,South,189,4.0,11.0,72,0.00,,,0.00,,2013-11-13 14:22:00,
2013-11-13 08:42:00,27.0,19.0,30.46,SSW,192,3.0,11.0,70,0.00,,,0.00,,2013-11-13 14:42:00,
2013-11-13 08:53:00,28.0,18.0,30.45,WNW,288,3.0,10.0,67,0.00,,,0.00,,2013-11-13 14:53:00,
2013-11-13 09:12:00,30.0,19.0,30.45,ENE,70,5.0,11.0,63,0.00,,,0.00,,2013-11-13 15:12:00,
2013-11-13 09:22:00,31.0,19.0,30.44,SW,223,8.0,15.0,61,0.00,,,0.00,,2013-11-13 15:22:00,
2013-11-13 09:43:00,33.0,20.0,30.43,West,263,11.0,20.0,58,0.00,,,0.00,,2013-11-13 15:43:00,
2013-11-13 09:53:00,34.0,20.0,30.42,WNW,294,10.0,19.0,57,0.00,,,0.00,,2013-11-13 15:53:00,
2013-11-13 10:23:00,37.0,21.0,30.40,WNW,288,12.0,18.0,52,0.00,,,0.00,,2013-11-13 16:23:00,
2013-11-13 10:32:00,37.0,21.0,30.40,WNW,288,12.0,18.0,52,0.00,,,0.00,,2013-11-13 16:32:00,
2013-11-13 10:43:00,37.0,21.0,30.40,WNW,288,12.0,18.0,52,0.00,,,0.00,,2013-11-13 16:43:00,
2013-11-13 10:52:00,38.0,22.0,30.40,West,274,12.0,24.0,51,0.00,,,0.00,,2013-11-13 16:52:00,
2013-11-13 11:12:00,39.0,21.0,30.38,WSW,254,15.0,24.0,49,0.00,,,0.00,,2013-11-13 17:12:00,
2013-11-13 11:23:00,40.0,22.0,30.37,West,273,14.0,24.0,49,0.00,,,0.00,,2013-11-13 17:23:00,
2013-11-13 11:52:00,43.0,23.0,30.34,West,279,14.0,22.0,45,0.00,,,0.00,,2013-11-13 17:52:00,
2013-11-13 12:12:00,44.0,24.0,30.33,West,277,15.0,25.0,45,0.00,,,0.00,,2013-11-13 18:12:00,
2013-11-13 12:23:00,45.0,24.0,30.32,WSW,257,16.0,23.0,44,0.00,,,0.00,,2013-11-13 18:23:00,
2013-11-13 12:42:00,47.0,26.0,30.30,WSW,245,14.0,22.0,43,0.00,,,0.00,,2013-11-13 18:42:00,
2013-11-13 12:52:00,48.0,27.0,30.28,WNW,290,14.0,23.0,43,0.00,,,0.00,,2013-11-13 18:52:00,
2013-11-13 13:11:00,49.0,26.0,30.27,West,263,11.0,21.0,41,0.00,,,0.00,,2013-11-13 19:11:00,
2013-11-13 13:21:00,50.0,28.0,30.26,WSW,246,10.0,19.0,42,0.00,,,0.00,,2013-11-13 19:21:00,
2013-11-13 13:42:00,51.0,29.0,30.25,West,267,14.0,24.0,42,0.00,,,0.00,,2013-11-13 19:42:00,
2013-11-13 13:52:00,51.0,28.0,30.24,WNW,288,11.0,20.0,41,0.00,,,0.00,,2013-11-13 19:52:00,
2013-11-13 14:22:00,52.0,30.0,30.22,West,263,9.0,21.0,42,0.00,,,0.00,,2013-11-13 20:22:00,
2013-11-13 14:42:00,53.0,30.0,30.21,West,281,11.0,22.0,41,0.00,,,0.00,,2013-11-13 20:42:00,
2013-11-13 14:52:00,54.0,31.0,30.20,West,268,11.0,22.0,41,0.00,,,0.00,,2013-11-13 20:52:00,
2013-11-13 15:12:00,54.0,31.0,30.19,SSE,148,13.0,22.0,41,0.00,,,0.00,,2013-11-13 21:12:00,
2013-11-13 15:22:00,54.0,31.0,30.18,West,281,14.0,25.0,41,0.00,,,0.00,,2013-11-13 21:22:00,
2013-11-13 15:43:00,54.0,31.0,30.17,West,259,7.0,22.0,41,0.00,,,0.00,,2013-11-13 21:43:00,
2013-11-13 15:53:00,54.0,30.0,30.17,SW,221,9.0,18.0,40,0.00,,,0.00,,2013-11-13 21:53:00,
2013-11-13 16:13:00,54.0,30.0,30.16,South,178,7.0,12.0,40,0.00,,,0.00,,2013-11-13 22:13:00,
2013-11-13 16:23:00,54.0,31.0,30.16,WNW,288,5.0,15.0,41,0.00,,,0.00,,2013-11-13 22:23:00,
2013-11-13 16:42:00,53.0,31.0,30.16,NW,305,6.0,13.0,42,0.00,,,0.00,,2013-11-13 22:42:00,
2013-11-13 16:53:00,53.0,31.0,30.15,WNW,295,8.0,14.0,43,0.00,,,0.00,,2013-11-13 22:53:00,
2013-11-13 17:11:00,52.0,31.0,30.14,SSW,207,5.0,12.0,44,0.00,,,0.00,,2013-11-13 23:11:00,
2013-11-13 17:22:00,50.0,30.0,30.14,WNW,302,4.0,12.0,46,0.00,,,0.00,,2013-11-13 23:22:00,
2013-11-13 17:43:00,49.0,31.0,30.14,South,178,4.0,12.0,49,0.00,,,0.00,,2013-11-13 23:43:00,
2013-11-13 17:52:00,47.0,30.0,30.13,WNW,285,4.0,9.0,51,0.00,,,0.00,,2013-11-13 23:52:00,
2013-11-13 18:11:00,47.0,31.0,30.13,West,271,6.0,11.0,53,0.00,,,0.00,,2013-11-14 00:11:00,
2013-11-13 18:22:00,46.0,30.0,30.12,SSW,198,4.0,11.0,54,0.00,,,0.00,,2013-11-14 00:22:00,
2013-11-13 18:42:00,46.0,31.0,30.12,SSW,201,5.0,9.0,55,0.00,,,0.00,,2013-11-14 00:42:00,
2013-11-13 18:52:00,45.0,30.0,30.12,South,191,5.0,11.0,56,0.00,,,0.00,,2013-11-14 00:52:00,
2013-11-13 19:11:00,45.0,30.0,30.11,SE,134,6.0,13.0,56,0.00,,,0.00,,2013-11-14 01:11:00,
2013-11-13 19:21:00,44.0,30.0,30.11,West,277,6.0,14.0,57,0.00,,,0.00,,2013-11-14 01:21:00,
2013-11-13 19:42:00,44.0,30.0,30.11,North,360,6.0,14.0,57,0.00,,,0.00,,2013-11-14 01:42:00,
2013-11-13 19:52:00,44.0,30.0,30.10,West,270,7.0,14.0,57,0.00,,,0.00,,2013-11-14 01:52:00,
2013-11-13 20:12:00,44.0,30.0,30.09,SSW,196,7.0,15.0,57,0.00,,,0.00,,2013-11-14 02:12:00,
2013-11-13 20:21:00,43.0,29.0,30.09,SW,219,8.0,14.0,58,0.00,,,0.00,,2013-11-14 02:21:00,
2013-11-13 21:11:00,42.0,29.0,30.08,South,169,7.0,15.0,60,0.00,,,0.00,,2013-11-14 03:11:00,
2013-11-13 21:21:00,41.0,28.0,30.09,South,187,6.0,15.0,60,0.00,,,0.00,,2013-11-14 03:21:00,
2013-11-13 21:44:00,41.0,29.0,30.09,West,265,5.0,13.0,61,0.00,,,0.00,,2013-11-14 03:44:00,
2013-11-13 21:54:00,41.0,29.0,30.08,West,268,6.0,13.0,62,0.00,,,0.00,,2013-11-14 03:54:00,
2013-11-13 22:24:00,40.0,28.0,30.09,West,272,5.0,11.0,62,0.00,,,0.00,,2013-11-14 04:24:00,
2013-11-13 22:43:00,39.0,27.0,30.08,West,271,6.0,11.0,63,0.00,,,0.00,,2013-11-14 04:43:00,
2013-11-13 22:54:00,39.0,28.0,30.07,West,268,6.0,11.0,64,0.00,,,0.00,,2013-11-14 04:54:00,
2013-11-13 23:13:00,39.0,28.0,30.06,WSW,254,5.0,14.0,64,0.00,,,0.00,,2013-11-14 05:13:00,
2013-11-13 23:23:00,38.0,27.0,30.05,NW,306,6.0,15.0,64,0.00,,,0.00,,2013-11-14 05:23:00,
2013-11-13 23:44:00,38.0,27.0,30.05,West,271,6.0,12.0,64,0.00,,,0.00,,2013-11-14 05:44:00,
2013-11-13 23:53:00,38.0,27.0,30.04,WNW,290,6.0,13.0,65,0.00,,,0.00,,2013-11-14 05:53:00,